Regional Weather Roundup
Issued by NWS Charleston, WV

Home | Current Version | Previous Version | Graphics & Text | Print | Product List | Glossary Off
Versions: 1 2 3 4 5 6 7 8 9 10 11 12 13 14 15 16 17 18 19 20 21 22 23 24 25 26 27 28 29 30 31 32 33 34 35 36 37 38 39 40 41 42 43 44 45 46 47 48 49 50

000
ASUS41 KRLX 072210
RWRRLX
West Virginia Regional Weather Roundup
National Weather Service Charleston WV
500 PM EST WED DEC 07 2016

Note: "fair" indicates few or no clouds below 12,000 feet with no
significant weather and/or obstructions to visibility.

WVZ003-072300-
Northern Panhandle of West Virginia

CITY           SKY/WX    TMP DP  RH WIND       PRES   REMARKS
WHEELING       CLOUDY    38  19  46 W6        30.07R
$$

WVZ009-072300-
Northwest West Virginia

CITY           SKY/WX    TMP DP  RH WIND       PRES   REMARKS
PARKERSBURG    CLOUDY    42  21  43 W3        30.13R
$$

WVZ006-072300-
Western West Virginia

CITY           SKY/WX    TMP DP  RH WIND       PRES   REMARKS
HUNTINGTON     PTCLDY    46  18  32 CALM      30.10R
$$

WVZ015-072300-
West Central West Virginia

CITY           SKY/WX    TMP DP  RH WIND       PRES   REMARKS
CHARLESTON     PTCLDY    43  26  51 CALM      30.09F
$$

WVZ022-031-072300-
North Central West Virginia

CITY           SKY/WX    TMP DP  RH WIND       PRES   REMARKS
CLARKSBURG     CLOUDY    42  23  46 W3        30.08R
MORGANTOWN     MOCLDY    41  18  39 SW5       30.08R
$$

WVZ025-035-042-045-072300-
Southern West Virginia

CITY           SKY/WX    TMP DP  RH WIND       PRES   REMARKS
BECKLEY        CLEAR     40  17  39 N3        30.05S
LOGAN            N/A     43  27  52 CALM      30.07S
BLUEFIELD      CLEAR     40  27  59 CALM      30.04S
LEWISBURG      CLEAR     41  13  31 NW3       30.05R
$$

WVZ047-072300-
Northern Mountains of West Virginia

CITY           SKY/WX    TMP DP  RH WIND       PRES   REMARKS
ELKINS         CLEAR     38  23  55 CALM      30.06S
$$

WVZ052-072300-
Eastern Panhandle of West Virginia

CITY           SKY/WX    TMP DP  RH WIND       PRES   REMARKS
MARTINSBURG    PTCLDY    46  26  45 CALM      30.04R
PETERSBURG     CLEAR     44  25  46 W5        30.06R
$$



USA.gov is the U.S. government's official web portal to all federal, state and local government web resources and services.